Regional Weather Roundup
Issued by NWS

Home | Current Version | Previous Version | Text Only | Print | Product List | Glossary On
Versions: 1 2 3 4 5 6 7 8 9 10 11 12 13 14 15 16 17 18 19 20 21 22 23 24 25 26 27 28 29 30 31 32 33 34 35 36 37 38 39 40 41 42 43 44 45 46 47 48 49 50
000
ASUS43 KTOP 211908
RWRKS

WEATHER ROUNDUP FOR KANSAS
NATIONAL WEATHER SERVICE GOODLAND KS
200 PM CDT THU SEP 21 2017

NOTE:  "FAIR" INDICATES FEW OR NO CLOUDS BELOW 12,000 FEET WITH NO
SIGNIFICANT WEATHER AND/OR OBSTRUCTIONS TO VISIBILITY.

KSZ001>006-013>018-027>032-041>047-212000-
NORTHWEST KANSAS

CITY           SKY/WX    TMP DP  RH WIND       PRES   REMARKS
GOODLAND       SUNNY     94  34  12 S20G32    29.73F
HAYS           SUNNY     98  57  25 S22G28    29.73F HX  97
HILL CITY      SUNNY     96  50  20 S18G28    29.72F
RUSSELL        SUNNY     96  60  30 S23G31    29.74F HX  96
$$

KSZ061>065-074>080-084>089-212000-
SOUTHWEST KANSAS

CITY           SKY/WX    TMP DP  RH WIND       PRES   REMARKS
DODGE CITY     SUNNY     96  50  20 S24G31    29.79F
ELKHART          N/A     92  45  19 S17         N/A
GARDEN CITY    SUNNY     91  50  24 S20G29    29.78F
GREAT BEND     SUNNY     96  60  30 S17G29    29.77F HX  96
LIBERAL        SUNNY     93  50  23 S21G26    29.80F
PRATT          SUNNY     94  61  33 S18G25    29.80F
$$

KSZ066>073-081>083-090>101-212000-
SOUTHEAST KANSAS

CITY           SKY/WX    TMP DP  RH WIND       PRES   REMARKS
CHANUTE        MOSUNNY   89  75  63 S18G26    29.90F HX  99
COFFEYVILLE    SUNNY     90  75  61 S15G24    29.89F HX 100
HUTCHINSON     SUNNY     96  70  42 S22G30    29.80F HX 102
MEDICINE LODGE   N/A     95  66  38 S17G24    29.78F HX  98
NEWTON         SUNNY     91  72  53 S21G28    29.83F HX  98
WICHITA INTL   MOSUNNY   94  71  47 S24G30    29.81F HX 101
WICHITA JABRA  SUNNY     92  72  51 S16G29    29.83F HX  99
WICHITA MCCONL MOSUNNY   93  81  66 S14G20    29.86F HX 113
$$

KSZ007>012-019>026-033>040-048>060-102>105-212000-
NORTHEAST KANSAS

CITY           SKY/WX    TMP DP  RH WIND       PRES   REMARKS
CONCORDIA      SUNNY     89  71  55 S20G28    29.76F HX  95
EMPORIA        SUNNY     90  73  57 S21G30    29.84F HX  98
LAWRENCE       MOSUNNY   91  75  59 SE21G26   29.86F HX 101
MANHATTAN      MOSUNNY   96  72  45 S17G24    29.78F HX 104
MARYSVILLE     SUNNY     91  72  52 S17G25    29.79F HX  98
OLATHE IND     MOSUNNY   89  74  60 SE21G28   29.90F HX  98
OLATHE EXE     SUNNY     88  74  63 S15G26    29.90F HX  96
SALINA         MOSUNNY   98  68  37 S21G30    29.77F HX 103
TOPEKA BILLARD PTSUNNY   89  75  63 S18G24    29.84F HX  99
TOPEKA FORBES  SUNNY     91  75  59 S16G29    29.85F HX 101
$$




USA.gov is the U.S. government's official web portal to all federal, state and local government web resources and services.